HK6REC-20 Weather Reports


time (UTC)temp
F
wind
direction
speed
knots
gust
knots
rain 1hr
in
rain 24hr
in
rain mn
in
humidity
%
barometer
mb
20260507063742 59 310 4.3 0.0 0.00 0.00 0.00 80 1016.0
20260507061741 59 310 4.3 0.0 0.00 0.00 0.00 79 1017.0
20260507055740 59 310 4.3 0.0 0.00 0.00 0.00 79 1016.0
20260507053739 59 310 4.3 0.0 0.00 0.00 0.00 79 1016.0
20260507051739 59 310 4.3 0.0 0.00 0.00 0.00 79 1017.0
20260507045738 59 310 4.3 0.0 0.00 0.00 0.00 79 1017.0
20260507043736 60 310 4.3 0.0 0.00 0.00 0.00 79 1017.0
20260507041736 60 310 4.3 0.0 0.00 0.00 0.00 79 1017.0
20260507035735 60 310 4.3 0.0 0.00 0.00 0.00 79 1017.0
20260507033733 60 310 4.3 0.0 0.00 0.00 0.00 79 1016.0
20260507031733 61 310 4.3 0.0 0.00 0.00 0.00 79 1016.0
20260507025732 61 310 4.3 0.0 0.00 0.00 0.00 79 1016.0
20260507023731 62 310 4.3 0.0 0.00 0.00 0.00 79 1016.0
20260507021730 63 310 4.3 0.0 0.00 0.00 0.00 79 1015.0
20260507015729 63 310 4.3 0.0 0.00 0.00 0.00 79 1015.0
20260507013728 64 310 4.3 0.0 0.00 0.00 0.00 79 1015.0
20260507011727 65 310 4.3 0.0 0.00 0.00 0.00 79 1014.0
20260507005726 66 310 4.3 0.0 0.00 0.00 0.00 79 1014.0
20260507003725 67 310 4.3 0.0 0.00 0.00 0.00 79 1014.0
20260507001724 68 310 4.3 0.0 0.00 0.00 0.00 79 1014.0
20260506235723 70 310 4.3 0.0 0.00 0.00 0.00 79 1013.0
20260506233722 70 310 4.3 0.0 0.00 0.00 0.00 79 1013.0
20260506231721 70 310 4.3 0.0 0.00 0.00 0.00 79 1012.0
20260506225720 70 310 4.3 0.0 0.00 0.00 0.00 79 1012.0
20260506223719 70 310 4.3 0.0 0.00 0.00 0.00 79 1012.0
20260506221718 71 310 4.3 0.0 0.00 0.00 0.00 78 1010.0
20260506215717 72 310 4.3 0.0 0.00 0.00 0.00 77 1010.0
20260506213716 72 310 4.3 0.0 0.00 0.00 0.00 76 1010.0
20260506211715 73 310 4.3 0.0 0.00 0.00 0.00 75 1010.0
20260506205715 74 310 4.3 0.0 0.00 0.00 0.00 74 1009.0
20260506203714 75 310 4.3 0.0 0.00 0.00 0.00 72 1009.0
20260506201712 76 310 4.3 0.0 0.00 0.00 0.00 70 1010.0
20260506195712 77 310 4.3 0.0 0.00 0.00 0.00 67 1009.0
20260506193711 78 310 4.3 0.0 0.00 0.00 0.00 63 1009.0
20260506191710 78 310 4.3 0.0 0.00 0.00 0.00 63 1010.0
20260506185709 78 310 4.3 0.0 0.00 0.00 0.00 63 1010.0
20260506183708 78 310 4.3 0.0 0.00 0.00 0.00 64 1010.0
20260506181707 78 310 4.3 0.0 0.00 0.00 0.00 67 1012.0
20260506175706 77 310 4.3 0.0 0.00 0.00 0.00 72 1011.0
20260506173705 77 310 4.3 0.0 0.00 0.00 0.00 72 1011.0
20260506171704 76 310 4.3 0.0 0.00 0.00 0.00 74 1013.0
20260506165703 75 310 4.3 0.0 0.00 0.00 0.00 79 1012.0
20260506163702 74 310 4.3 0.0 0.00 0.00 0.00 79 1013.0
20260506161701 74 310 4.3 0.0 0.00 0.00 0.00 78 1014.0
20260506155700 72 0 1.7 0.0 0.00 0.00 0.00 78 1014.0
20260506153659 71 120 2.6 0.0 0.00 0.00 0.00 83 1014.0
20260506151658 71 120 2.6 0.0 0.00 0.00 0.00 83 1015.0
20260506145657 71 120 2.6 0.0 0.00 0.00 0.00 84 1015.0
20260506143656 70 120 2.6 0.0 0.00 0.00 0.00 85 1016.0
20260506141656 70 120 2.6 0.0 0.00 0.00 0.00 82 1018.0
20260506135655 68 120 2.6 0.0 0.00 0.00 0.00 85 1016.0
20260506133654 66 120 2.6 0.0 0.00 0.00 0.00 87 1016.0
20260506131653 67 120 2.6 0.0 0.00 0.00 0.00 85 1018.0
20260506125652 67 120 2.6 0.0 0.00 0.00 0.00 85 1017.0
20260506123651 61 200 0.9 0.9 0.00 0.00 0.00 90 1017.0
20260506121650 61 200 0.9 0.9 0.00 0.00 0.00 90 1016.0
20260506115649 61 200 0.9 0.9 0.00 0.00 0.00 90 1016.0
20260506113648 61 200 0.9 0.9 0.00 0.00 0.00 90 1016.0
20260506111647 61 200 0.9 0.9 0.00 0.00 0.00 90 1017.0
20260506105646 61 200 0.9 0.9 0.00 0.00 0.00 90 1016.0
20260506103645 61 200 0.9 0.9 0.00 0.00 0.00 90 1016.0
20260506101644 61 200 0.9 0.9 0.00 0.00 0.00 90 1016.0
20260506095643 61 200 0.9 0.9 0.00 0.00 0.00 90 1015.0
20260506093642 61 200 0.9 0.9 0.00 0.00 0.00 90 1015.0
20260506091641 61 200 0.9 0.9 0.00 0.00 0.00 90 1015.0
20260506085640 62 200 0.9 0.9 0.00 0.00 0.00 90 1015.0
20260506083639 62 200 0.9 0.9 0.00 0.00 0.00 90 1015.0
20260506081638 62 200 0.9 0.9 0.00 0.00 0.00 90 1015.0
20260506071635 62 200 0.9 0.9 0.00 0.00 0.00 89 1015.0